#timestamp,LO_Frequency,Hit 
1505192415.6,286046979.8,N
1505192435.4,286046981.1,N
1505192455.2,286046982.2,N
1505192475.1,286046981.2,P
1505192476.0,286046981.2,P
1505192495.8,286046995.4,P
1505192515.6,286046996.3,N
1505192535.5,286046995.1,N
1505192555.3,286046997.8,N
1505192575.1,286046991.0,N
1505192595.9,286046987.8,N
1505192615.7,286046988.3,N
1505192635.5,286046986.1,N
1505192655.3,286046982.2,N
1505192675.2,286046987.9,N
1505192695.0,286046987.2,N
1505192695.9,286046987.2,N
1505192715.7,286046992.6,N
1505192735.6,286046987.1,N
1505192755.4,286046985.5,N
1505192775.2,286046984.9,N
1505192795.1,286046984.4,P
1505192796.0,286046984.4,P
1505192815.8,286047001.5,N
1505192835.6,286047005.1,N
1505192855.5,286047002.4,N
1505192875.3,286046997.1,N
1505192895.1,286046995.6,N
1505192915.9,286046995.2,N
1505192935.7,286046997.8,N
1505192955.5,286046996.4,N
1505192975.4,286046991.4,N
1505192995.2,286046993.8,N
1505193015.0,286046999.2,N
1505193015.9,286046999.2,N
1505193035.8,286047000.5,N
1505193055.6,286046999.3,N
1505193075.4,286046995.4,N
1505193095.3,286046994.5,N
1505193115.1,286046997.7,N
1505193116.0,286046997.7,N
1505193135.8,286046998.2,N
1505193155.7,286046999.9,N
1505193175.5,286047002.5,N
1505193195.3,286047004.0,N
1505193215.1,286047007.6,N
1505193235.9,286047008.3,N
1505193255.7,286047008.7,N
1505193275.5,286047001.4,N
1505193295.4,286047004.4,N
1505193315.2,286047003.2,N
1505193335.0,286046998.3,N
1505193335.9,286046998.3,N
1505193355.8,286046998.8,N
1505193375.6,286046996.9,N
1505193395.4,286046998.0,N
1505193415.3,286047001.2,N
1505193435.1,286047000.0,N
1505193436.0,286047000.0,N
1505193455.8,286046996.9,N
1505193475.7,286046993.6,N
1505193495.5,286046994.9,N
1505193515.3,286047001.2,N
1505193535.1,286047005.1,N
1505193555.9,286047008.2,N
1505193575.7,286047014.4,P
1505193595.6,286047016.4,N
1505193615.4,286047019.8,N
1505193635.2,286047021.4,N
1505193655.0,286047020.4,N
1505193655.9,286047020.4,N
1505193675.8,286047017.9,N
1505193695.6,286047018.5,N
1505193715.5,286047021.6,P
1505193735.3,286047003.8,N
1505193755.1,286047004.7,N
1505193775.8,286047003.4,N
1505193795.7,286047005.5,N
1505193815.5,286047004.5,N
1505193835.3,286047009.1,N
1505193855.2,286047004.9,N
1505193875.9,286047009.0,N
1505193895.7,286047013.6,N
1505193915.6,286047013.4,N
1505193935.4,286047014.8,N
1505193955.2,286047014.0,N
1505193975.1,286047012.0,N
1505193976.0,286047012.0,N
1505193995.8,286047012.5,N
1505194015.6,286047015.1,N
1505194035.5,286047012.0,N
1505194055.3,286047012.2,N
1505194075.1,286047010.4,N
1505194095.9,286047011.5,N
1505194115.7,286047016.9,P
1505194135.5,286047009.0,N
1505194155.4,286047004.7,N
1505194175.2,286047007.4,N
1505194195.0,286047005.0,N
1505194195.9,286047005.0,N
1505194215.8,286047003.4,N
1505194235.6,286047005.9,N
1505194255.4,286047005.2,N
1505194275.2,286047004.5,N
1505194295.1,286047004.2,N
1505194296.0,286047004.2,N
1505194315.8,286047002.3,N
1505194335.6,286047003.2,N
1505194355.5,286047004.4,N
1505194375.3,286047004.4,N
1505194395.1,286047003.5,N
1505194415.9,286047002.8,N
1505194435.7,286046997.3,N
1505194455.5,286046993.2,N
1505194475.4,286046982.3,P
1505194495.2,286046979.0,N
1505194515.0,286046979.2,N
1505194515.9,286046979.2,N
1505194535.8,286046978.4,N
1505194555.6,286046974.7,N
1505194575.4,286046978.2,N
1505194595.3,286046977.4,N
1505194615.1,286046977.0,N
1505194616.0,286046977.0,N
1505194635.8,286046978.1,N
1505194655.7,286046979.5,N
1505194675.5,286046980.2,N
1505194695.3,286046976.6,P
1505194715.2,286046993.8,P
1505194735.9,286046993.6,N
1505194755.7,286046993.4,N
1505194775.6,286046997.1,N
1505194795.4,286046995.0,N
1505194815.2,286046996.0,N
1505194835.0,286046997.4,N
1505194835.9,286046997.4,N
1505194855.8,286046998.4,N
1505194875.6,286046998.9,N
1505194895.4,286046995.1,N
1505194915.3,286046993.8,N
1505194935.1,286046997.6,N
1505194955.8,286046999.1,N
1505194975.7,286046997.0,N
1505194995.5,286046996.5,N
1505195015.3,286046997.1,N
1505195035.2,286046999.1,N
1505195055.9,286047000.6,N
1505195075.7,286047003.4,N
1505195095.6,286047005.5,N
1505195115.4,286047006.3,N
1505195135.2,286047007.2,N
1505195155.0,286046999.4,N
1505195155.9,286046999.4,N
1505195175.8,286046999.9,N
1505195195.6,286046999.7,N
1505195215.4,286047003.6,N
1505195235.3,286046999.9,N
1505195255.1,286047001.8,N
1505195275.8,286047001.9,N
1505195295.7,286047003.9,N
1505195315.5,286046998.1,N
1505195335.3,286046995.3,N
1505195355.2,286046997.2,N
1505195375.9,286046998.3,N
1505195395.7,286046996.7,N
1505195415.6,286046995.1,N
1505195435.4,286046992.4,N
1505195455.2,286046996.3,N
1505195475.0,286046999.9,N
1505195476.0,286046999.9,N
1505195495.8,286047006.3,N
1505195515.6,286047013.8,P
1505195535.5,286047016.5,N
1505195555.3,286047020.2,N
1505195575.1,286047023.3,P
1505195595.9,286047012.1,N
1505195615.7,286047011.6,N
1505195635.5,286047011.9,N
1505195655.4,286047013.5,N
1505195675.2,286047016.1,P
1505195695.0,286047002.1,N
1505195695.9,286047002.1,N
1505195715.8,286047001.5,N
1505195735.6,286047002.2,N
1505195755.4,286047001.6,N
1505195775.3,286047004.5,N
1505195795.1,286047006.9,N
1505195796.0,286047006.9,N
1505195815.8,286047009.2,N
1505195835.7,286047010.3,N
1505195855.5,286047007.8,N
1505195875.3,286047008.8,N
1505195895.1,286047010.3,N
1505195915.9,286047009.0,N
1505195935.7,286047006.6,N
1505195955.5,286047004.5,N
1505195975.4,286047001.5,N
1505195995.2,286047003.9,N
